SCP
0 0 0 0 0 0 0 0 0 0 0 0 0 0 0 0 0 0 0 0 0 0 0 0 0 0 0 0 0 0 0 0 0 0 0 0 0 0 0 0 0 0 0 0
0 0 0 0 0 0 0 0 0 0 0 0 0 0 0 0 0 0 0 0 0 0 0 0 0 0 0 0 0 0 0 0 0 0 0 0 0 0 0 0 0 0 0 0
0 0 0 0 0 0 0 0 0 0 0 0 0 0 0 0 0 0 0 0 0 0 0 0 0 0 0 0 0 0 0 0 0 0 0 0 0 0 0 0 0 0 0 0
0 0 0 0 0 0 0 0 0 0 0 0 0 0 0 0 0 0 0 0 0 0 0 0 0 0 0 0 0 0 0 0 0 0 0 0 0 0 0 0 0 0 0 0
0 0 0 0 0 0 0 0 0 0 0 0 0 0 0 0 0 0 0 0 0 0 0 0 0 0 0 0 0 0 0 0 0 0 0 0 0 0 0 0 0 0 0 0
0 0 0 0 0 0 0 0 0 0 0 0 0 0 0 0 0 0 0 0 0 0 0 0 0 0 0 0 0 0 0 0 0 0 0 0 0 0 0 0 0 0 0 0
0 0 0 0 0 0 0 0 0 0 0 0 0 0 0 0 0 0 0 0 0 0 0 0 0 0 0 0 0 0 0 0 0 0 0 0 0 0 0 0 0 0 0 0
0 0 0 0 0 0 0 0 0 0 0 0 0 0 0 0 0 0 0 0 0 0 0 0 0 0 0 0 0 0 0 0 0 0 0 0 0 0 0 0 0 0 0 0
0 0 0 0 0 0 0 0 0 0 0 0 0 0 0 0 0 0 0 0 0 0 0 0 0 0 0 0 0 0 0 0 0 0 0 0 0 0 0 0 0 0 0 0
0 0 0 0 0 0 0 0 0 0 0 0 0 0 0 0 0 0 0 0 0 0 0 0 0 0 0 0 0 0 0 0 0 0 0 0 0 0 0 0 0 0 0 0
0 0 0 0 0 0 0 0 0 0 0 0 0 0 0 0 0 0 0 0 0 0 0 0 0 0 0 0 0 0 0 0 0 0 0 0 0 0 0 0 0 0 0 0
0 0 0 0 0 0 0 0 0 0 0 0 0 0 0 0 0 0 0 0 0 0 0 0 0 0 0 0 0 0 0 0 0 0 0 0 0 0 0 0 0 0 0 0
0 0 0 0 0 0 0 0 0 0 0 0 0 0 0 0 0 0 0 0 0 0 0 0 0 0 0 0 0 0 0 0 0 0 0 0 0 0 0 0 0 0 0 0
0 0 0 0 0 0 0 0 0 0 0 0 0 0 0 0 0 0 0 0 0 0 0 0 0 0 0 0 0 0 0 0 0 0 0 0 0 0 0 0 0 0 0 0
0 0 0 0 0 0 0 0 0 0 0 0 0 0 0 0 0 0 0 0 0 0 0 0 0 0 0 0 0 0 0 0 0 0 0 0 0 0 0 0 0 0 0 0
0 0 0 0 0 0 0 0 0 0 0 0 0 0 0 0 0 0 0 0 0 0 0 0 0 0 0 0 0 0 0 0 0 0 0 0 0 0 0 0 0 0 0 0
0 0 0 0 0 0 0 0 0 0 0 0 0 0 0 0 0 0 0 0 0 0 0 0 0 0 0 0 0 0 0 0 0 0 0 0 0 0 0 0 0 0 0 0
0 0 0 0 0 0 0 0 0 0 0 0 0 0 0 0 0 0 0 0 0 0 0 0 0 0 0 0 0 0 0 0 0 0 0 0 0 0 0 0 0 0 0 0
0 0 0 0 0 0 0 0 0 0 0 0 0 0 0 0 0 0 0 0 0 0 0 0 0 0 0 0 0 0 0 0 0 0 0 0 0 0 0 0 0 0 0 0
0 0 0 0 0 0 0 0 0 0 0 0 0 0 0 0 0 0 0 0 0 0 0 0 0 0 0 0 0 0 0 0 0 0 0 0 0 0 0 0 0 0 0 0
0 0 0 0 0 0 0 0 0 0 0 0 0 0 0 0 0 0 0 0 0 0 0 0 0 0 0 0 0 0 0 0 0 0 0 0 0 0 0 0 0 0 0 0
0 0 0 0 0 0 0 0 0 0 0 0 0 0 0 0 0 0 0 0 0 0 0 0 0 0 0 0 0 0 0 0 0 0 0 0 0 0 0 0 0 0 0 0
0 0 0 0 0 0 0 0 0 0 0 0 0 0 0 0 0 0 0 0 0 0 0 0 0 0 0 0 0 0 0 0 0 0 0 0 0 0 0 0 0 0 0 0
0 0 0 0 0 0 0 0 0 0 0 0 0 0 0 0 0 0 0 0 0 0 0 0 0 0 0 0 0 0 0 0 0 0 0 0 0 0 0 0 0 0 0 0
0 0 0 0 0 0 0 0 0 0 0 0 0 0 0 0 0 0 0 0 0 0 0 0 0 0 0 0 0 0 0 0 0 0 0 0 0 0 0 0 0 0 0 0
0 0 0 0 0 0 0 0 0 0 0 0 0 0 0 0 0 0 0 0 0 0 0 0 0 0 0 0 0 0 0 0 0 0 0 0 0 0 0 0 0 0 0 0
0 0 0 0 0 0 0 0 0 0 0 0 0 0 0 0 0 0 0 0 0 0 0 0 0 0 0 0 0 0 0 0 0 0 0 0 0 0 0 0 0 0 0 0
Wind_Speed_500mb
34 25 20 19 32 40 37 48 35 46 36 52 38 24 26 47 52 50 57 60 61 62 60 61 59 56 52 46 40 35 30 27 25 23 21 22 22 19 17 14 12 8 5 2
15 31 32 36 32 26 44 46 37 48 50 53 47 41 40 52 64 69 62 68 71 69 69 74 70 65 58 54 47 41 37 33 30 29 28 26 23 20 18 14 11 8 5 3
26 23 23 26 41 45 38 35 41 43 51 40 44 46 53 60 55 69 80 79 79 84 83 83 82 74 69 61 52 45 39 36 33 29 25 23 23 20 18 13 9 4 2 6
20 4 31 24 18 31 49 49 47 43 41 49 64 77 59 58 53 61 78 86 86 82 84 86 85 77 72 62 52 47 43 37 32 31 30 27 24 22 18 14 9 2 2 6
18 25 25 17 22 33 27 45 37 44 57 74 76 61 62 92 81 72 76 80 91 88 88 90 87 80 69 62 56 50 42 39 35 34 30 28 25 21 17 13 8 4 2 5
10 18 24 35 36 45 6 22 45 42 37 46 73 28 34 99 64 69 71 68 79 85 90 89 84 79 70 63 57 52 47 43 38 35 32 28 24 21 17 13 8 6 6 7
26 20 8 18 15 3 14 20 8 11 22 53 28 35 80 66 49 40 47 66 77 85 90 84 76 75 70 64 60 54 49 44 36 34 32 29 25 20 17 14 13 9 7 10
14 16 28 30 4 17 10 8 20 22 19 30 42 49 47 51 42 41 49 61 74 81 79 72 69 69 67 61 57 49 41 31 36 33 32 27 23 20 18 17 13 11 11 12
15 11 8 16 21 42 17 26 39 42 51 45 42 46 48 44 43 40 52 65 70 72 68 63 66 68 65 62 52 44 35 37 37 35 30 27 23 20 18 16 13 11 11 12
24 25 27 46 49 48 51 51 56 58 61 53 51 46 46 49 49 47 53 60 63 64 63 63 64 63 61 54 46 39 39 40 38 32 28 25 21 20 17 15 12 13 15 17
29 15 21 41 56 46 48 49 55 59 57 53 53 46 44 48 58 56 55 59 60 60 61 61 60 60 55 47 41 42 42 40 36 32 27 24 20 18 17 15 15 15 17 19
21 16 23 33 34 29 28 32 38 48 53 52 51 49 27 45 57 59 55 57 59 61 61 62 61 55 47 43 41 40 39 37 33 29 26 24 22 20 18 17 15 16 17 20
26 45 41 37 39 39 39 42 43 43 43 41 44 42 15 42 50 51 48 51 56 61 64 62 54 49 44 41 39 40 38 33 30 28 26 24 22 20 19 17 15 16 18 21
56 40 33 42 23 32 31 33 33 35 34 30 40 36 15 36 46 47 48 51 54 55 50 44 44 42 38 40 38 36 33 30 28 26 24 23 22 20 19 17 16 17 19 21
39 35 41 39 39 39 35 33 33 33 30 29 31 19 13 32 42 46 49 47 44 42 40 40 37 37 38 35 33 31 29 28 26 24 24 23 22 21 20 19 19 18 20 24
21 29 33 37 40 37 32 32 30 30 28 30 17 14 25 34 41 40 39 37 40 42 39 38 37 34 32 31 29 27 25 24 26 25 23 22 21 22 22 21 21 21 23 26
18 20 23 28 28 28 26 23 24 24 22 16 16 22 29 34 36 34 34 35 35 33 34 36 37 34 30 26 24 26 29 26 24 23 23 23 23 23 23 24 24 24 25 29
25 24 19 20 20 20 22 22 22 20 18 15 17 24 32 34 35 38 39 40 40 40 38 36 36 35 30 26 29 28 26 25 25 24 25 24 24 26 26 27 28 29 28 29
20 20 18 19 18 20 19 18 18 18 19 21 25 32 36 33 32 33 36 38 38 38 36 34 32 26 28 29 27 27 27 26 26 27 28 28 28 28 29 30 31 33 34 33
21 21 19 16 15 17 16 15 16 18 22 27 31 40 36 33 33 34 35 36 32 30 28 28 28 27 26 26 26 26 27 28 29 30 30 29 30 31 32 33 33 34 36 37
18 17 15 14 12 11 15 18 22 26 28 31 34 31 28 28 30 32 34 33 29 27 26 25 23 24 26 27 27 28 29 30 30 31 31 32 33 33 33 34 36 37 38 40
16 14 14 14 14 14 15 19 21 23 24 25 27 28 29 31 32 31 30 28 26 24 24 25 25 26 27 28 29 29 30 31 32 34 34 34 34 35 36 37 38 39 41 43
17 17 16 16 17 17 18 20 21 22 23 23 25 29 29 26 27 30 31 26 26 24 22 21 23 26 28 30 31 32 33 33 34 34 35 36 37 39 38 38 39 42 43 46
19 18 18 18 20 21 21 19 20 22 23 25 26 28 30 30 31 30 25 23 21 22 21 23 25 29 31 32 33 34 34 35 36 36 37 39 40 40 40 40 42 43 47 49
19 22 21 20 20 20 21 23 25 25 27 29 32 34 34 33 32 27 26 26 26 27 27 27 28 31 31 34 36 36 36 37 37 39 39 41 41 41 42 43 45 47 49 51
22 23 24 23 21 24 25 26 27 25 28 33 33 34 35 36 35 32 31 31 30 30 30 30 30 32 33 34 37 37 38 39 40 41 42 42 42 43 43 44 47 49 51 53
26 27 28 30 28 29 31 32 32 31 29 30 32 31 33 35 36 35 36 37 36 35 35 35 34 34 36 38 40 41 42 42 43 43 43 43 43 43 44 46 48 50 52 54
Wind_Direction_500mb
242 260 269 227 212 218 229 232 230 250 244 258 258 261 229 215 220 213 215 217 221 228 224 222 224 222 221 220 220 218 219 225 233 235 239 243 242 240 239 230 221 205 191 220
256 250 244 256 263 250 232 244 255 253 258 259 273 273 247 241 218 214 210 224 232 229 226 224 225 224 222 221 219 224 229 230 230 233 233 231 229 224 220 211 196 186 164 78
244 237 237 253 240 244 254 245 237 246 253 265 262 257 259 258 249 214 222 231 234 232 226 226 226 224 221 220 220 223 225 231 235 238 235 227 224 219 212 203 198 188 75 34
245 262 246 243 242 226 234 241 244 252 259 256 256 262 270 271 253 239 231 235 234 227 229 228 226 222 219 217 219 222 224 225 228 231 227 224 219 214 205 197 192 188 39 22
235 239 259 298 244 221 223 244 240 243 247 255 267 269 268 263 257 257 258 244 238 235 225 225 223 219 217 215 217 220 223 226 227 228 223 221 219 212 208 203 190 202 277 347
202 238 242 243 242 243 247 248 241 244 250 253 260 262 262 264 265 262 258 250 225 221 222 224 222 219 216 214 214 215 219 224 230 229 222 219 217 211 210 208 206 225 267 306
231 244 265 266 214 304 185 239 215 228 285 265 266 255 265 266 270 260 244 229 220 219 221 220 220 217 214 214 216 222 227 224 220 221 218 214 211 213 218 221 224 232 279 306
221 232 247 240 77 203 228 243 255 296 301 310 311 311 295 277 257 237 230 215 216 215 213 215 217 215 215 217 223 225 223 218 218 214 218 210 212 221 227 231 237 251 273 298
183 211 220 229 237 245 253 265 278 285 292 295 295 296 301 282 259 230 216 210 209 211 211 212 214 216 218 220 221 219 212 211 210 210 209 216 221 225 227 239 255 277 290 299
256 260 256 263 268 266 257 261 268 274 278 277 276 279 281 275 254 233 219 214 214 213 211 210 210 213 218 219 217 210 206 206 207 210 215 220 221 229 239 253 267 278 286 294
252 265 280 271 260 266 265 268 269 270 273 274 269 257 262 259 251 239 226 221 218 218 214 208 208 211 213 211 204 203 206 206 208 211 216 224 225 233 242 251 263 276 288 301
247 257 233 246 255 259 283 289 280 272 274 273 261 246 230 255 246 242 230 224 217 213 212 209 209 209 206 201 199 203 206 207 210 213 218 223 226 230 240 251 262 279 295 306
242 253 254 255 269 273 278 279 279 277 269 267 263 241 211 235 237 238 229 221 215 210 208 207 204 199 197 198 199 203 209 210 212 212 214 219 227 235 242 250 263 276 286 296
251 258 271 260 246 264 271 270 272 274 269 264 255 241 200 229 229 226 220 213 211 206 203 199 197 195 192 194 198 200 204 208 212 215 219 225 232 239 244 248 259 271 284 293
251 252 250 264 271 273 276 278 272 276 267 250 233 232 214 221 220 213 211 208 205 200 194 192 194 190 191 192 194 199 203 208 213 220 225 229 236 245 254 263 272 281 291 299
259 268 274 274 280 284 279 275 271 258 243 232 235 218 211 214 215 206 203 199 195 190 186 188 190 193 193 195 199 203 209 217 223 226 230 237 245 254 262 270 279 287 293 296
265 277 269 269 272 274 273 263 250 244 235 226 214 210 204 197 196 191 185 185 186 187 188 190 192 195 196 199 211 221 223 225 230 234 240 248 256 264 273 281 287 292 298 303
242 247 261 263 267 263 257 249 243 241 238 225 210 204 205 198 200 192 189 188 187 188 190 192 195 203 210 215 221 225 229 233 238 245 250 257 264 270 277 284 290 294 296 299
225 237 259 275 268 263 259 247 235 230 227 219 210 209 206 197 196 192 189 191 193 196 199 202 207 208 216 221 227 232 238 243 248 253 258 262 268 274 280 285 289 293 296 299
233 244 260 274 273 270 256 249 247 239 227 216 207 210 205 201 200 198 197 200 204 207 206 212 216 218 224 231 237 243 247 251 254 256 261 267 272 275 279 283 287 292 297 301
241 257 269 274 273 256 235 223 227 227 224 219 219 221 218 213 208 206 205 206 206 209 214 223 229 231 236 243 246 248 252 256 259 262 265 269 273 277 281 285 289 294 298 302
229 240 257 266 266 253 239 232 228 226 228 228 224 220 219 216 211 208 207 213 218 224 229 233 236 238 242 248 253 256 257 260 263 266 269 272 276 280 283 286 292 296 300 303
231 242 260 271 264 255 251 242 236 232 229 226 225 221 218 217 217 216 218 224 226 233 237 241 244 250 252 254 258 262 265 267 269 271 273 277 280 281 284 289 293 297 301 304
245 249 256 262 267 266 264 262 249 240 233 225 221 220 221 219 219 225 231 237 242 247 253 256 259 260 263 265 268 271 272 273 273 274 275 277 280 283 288 292 296 299 300 301
251 252 257 267 273 271 261 258 254 248 242 236 228 224 225 228 232 236 246 250 253 257 261 264 267 269 271 270 271 274 274 275 276 276 278 280 283 286 289 293 296 297 299 302
272 275 274 274 276 273 270 267 264 256 249 246 241 236 236 240 245 249 250 254 259 264 268 270 271 271 273 275 277 279 280 280 280 280 280 281 284 286 290 293 295 298 300 302
275 276 281 283 281 282 282 278 274 274 269 262 259 251 248 248 250 252 255 259 263 266 268 272 275 278 280 281 282 283 282 281 281 281 281 283 284 287 290 292 294 298 301 304
Wind_Speed_850mb
34 25 20 19 32 40 37 48 35 46 36 52 38 24 26 47 52 50 57 60 61 62 60 61 59 56 52 46 40 35 30 27 25 23 21 22 22 19 17 14 12 8 5 2
15 31 32 36 32 26 44 46 37 48 50 53 47 41 40 52 64 69 62 68 71 69 69 74 70 65 58 54 47 41 37 33 30 29 28 26 23 20 18 14 11 8 5 3
26 23 23 26 41 45 38 35 41 43 51 40 44 46 53 60 55 69 80 79 79 84 83 83 82 74 69 61 52 45 39 36 33 29 25 23 23 20 18 13 9 4 2 6
20 4 31 24 18 31 49 49 47 43 41 49 64 77 59 58 53 61 78 86 86 82 84 86 85 77 72 62 52 47 43 37 32 31 30 27 24 22 18 14 9 2 2 6
18 25 25 17 22 33 27 45 37 44 57 74 76 61 62 92 81 72 76 80 91 88 88 90 87 80 69 62 56 50 42 39 35 34 30 28 25 21 17 13 8 4 2 5
10 18 24 35 36 45 6 22 45 42 37 46 73 28 34 99 64 69 71 68 79 85 90 89 84 79 70 63 57 52 47 43 38 35 32 28 24 21 17 13 8 6 6 7
26 20 8 18 15 3 14 20 8 11 22 53 28 35 80 66 49 40 47 66 77 85 90 84 76 75 70 64 60 54 49 44 36 34 32 29 25 20 17 14 13 9 7 10
14 16 28 30 4 17 10 8 20 22 19 30 42 49 47 51 42 41 49 61 74 81 79 72 69 69 67 61 57 49 41 31 36 33 32 27 23 20 18 17 13 11 11 12
15 11 8 16 21 42 17 26 39 42 51 45 42 46 48 44 43 40 52 65 70 72 68 63 66 68 65 62 52 44 35 37 37 35 30 27 23 20 18 16 13 11 11 12
24 25 27 46 49 48 51 51 56 58 61 53 51 46 46 49 49 47 53 60 63 64 63 63 64 63 61 54 46 39 39 40 38 32 28 25 21 20 17 15 12 13 15 17
29 15 21 41 56 46 48 49 55 59 57 53 53 46 44 48 58 56 55 59 60 60 61 61 60 60 55 47 41 42 42 40 36 32 27 24 20 18 17 15 15 15 17 19
21 16 23 33 34 29 28 32 38 48 53 52 51 49 27 45 57 59 55 57 59 61 61 62 61 55 47 43 41 40 39 37 33 29 26 24 22 20 18 17 15 16 17 20
26 45 41 37 39 39 39 42 43 43 43 41 44 42 15 42 50 51 48 51 56 61 64 62 54 49 44 41 39 40 38 33 30 28 26 24 22 20 19 17 15 16 18 21
56 40 33 42 23 32 31 33 33 35 34 30 40 36 15 36 46 47 48 51 54 55 50 44 44 42 38 40 38 36 33 30 28 26 24 23 22 20 19 17 16 17 19 21
39 35 41 39 39 39 35 33 33 33 30 29 31 19 13 32 42 46 49 47 44 42 40 40 37 37 38 35 33 31 29 28 26 24 24 23 22 21 20 19 19 18 20 24
21 29 33 37 40 37 32 32 30 30 28 30 17 14 25 34 41 40 39 37 40 42 39 38 37 34 32 31 29 27 25 24 26 25 23 22 21 22 22 21 21 21 23 26
18 20 23 28 28 28 26 23 24 24 22 16 16 22 29 34 36 34 34 35 35 33 34 36 37 34 30 26 24 26 29 26 24 23 23 23 23 23 23 24 24 24 25 29
25 24 19 20 20 20 22 22 22 20 18 15 17 24 32 34 35 38 39 40 40 40 38 36 36 35 30 26 29 28 26 25 25 24 25 24 24 26 26 27 28 29 28 29
20 20 18 19 18 20 19 18 18 18 19 21 25 32 36 33 32 33 36 38 38 38 36 34 32 26 28 29 27 27 27 26 26 27 28 28 28 28 29 30 31 33 34 33
21 21 19 16 15 17 16 15 16 18 22 27 31 40 36 33 33 34 35 36 32 30 28 28 28 27 26 26 26 26 27 28 29 30 30 29 30 31 32 33 33 34 36 37
18 17 15 14 12 11 15 18 22 26 28 31 34 31 28 28 30 32 34 33 29 27 26 25 23 24 26 27 27 28 29 30 30 31 31 32 33 33 33 34 36 37 38 40
16 14 14 14 14 14 15 19 21 23 24 25 27 28 29 31 32 31 30 28 26 24 24 25 25 26 27 28 29 29 30 31 32 34 34 34 34 35 36 37 38 39 41 43
17 17 16 16 17 17 18 20 21 22 23 23 25 29 29 26 27 30 31 26 26 24 22 21 23 26 28 30 31 32 33 33 34 34 35 36 37 39 38 38 39 42 43 46
19 18 18 18 20 21 21 19 20 22 23 25 26 28 30 30 31 30 25 23 21 22 21 23 25 29 31 32 33 34 34 35 36 36 37 39 40 40 40 40 42 43 47 49
19 22 21 20 20 20 21 23 25 25 27 29 32 34 34 33 32 27 26 26 26 27 27 27 28 31 31 34 36 36 36 37 37 39 39 41 41 41 42 43 45 47 49 51
22 23 24 23 21 24 25 26 27 25 28 33 33 34 35 36 35 32 31 31 30 30 30 30 30 32 33 34 37 37 38 39 40 41 42 42 42 43 43 44 47 49 51 53
26 27 28 30 28 29 31 32 32 31 29 30 32 31 33 35 36 35 36 37 36 35 35 35 34 34 36 38 40 41 42 42 43 43 43 43 43 43 44 46 48 50 52 54
Wind_Direction_850mb
242 260 269 227 212 218 229 232 230 250 244 258 258 261 229 215 220 213 215 217 221 228 224 222 224 222 221 220 220 218 219 225 233 235 239 243 242 240 239 230 221 205 191 220
256 250 244 256 263 250 232 244 255 253 258 259 273 273 247 241 218 214 210 224 232 229 226 224 225 224 222 221 219 224 229 230 230 233 233 231 229 224 220 211 196 186 164 78
244 237 237 253 240 244 254 245 237 246 253 265 262 257 259 258 249 214 222 231 234 232 226 226 226 224 221 220 220 223 225 231 235 238 235 227 224 219 212 203 198 188 75 34
245 262 246 243 242 226 234 241 244 252 259 256 256 262 270 271 253 239 231 235 234 227 229 228 226 222 219 217 219 222 224 225 228 231 227 224 219 214 205 197 192 188 39 22
235 239 259 298 244 221 223 244 240 243 247 255 267 269 268 263 257 257 258 244 238 235 225 225 223 219 217 215 217 220 223 226 227 228 223 221 219 212 208 203 190 202 277 347
202 238 242 243 242 243 247 248 241 244 250 253 260 262 262 264 265 262 258 250 225 221 222 224 222 219 216 214 214 215 219 224 230 229 222 219 217 211 210 208 206 225 267 306
231 244 265 266 214 304 185 239 215 228 285 265 266 255 265 266 270 260 244 229 220 219 221 220 220 217 214 214 216 222 227 224 220 221 218 214 211 213 218 221 224 232 279 306
221 232 247 240 77 203 228 243 255 296 301 310 311 311 295 277 257 237 230 215 216 215 213 215 217 215 215 217 223 225 223 218 218 214 218 210 212 221 227 231 237 251 273 298
183 211 220 229 237 245 253 265 278 285 292 295 295 296 301 282 259 230 216 210 209 211 211 212 214 216 218 220 221 219 212 211 210 210 209 216 221 225 227 239 255 277 290 299
256 260 256 263 268 266 257 261 268 274 278 277 276 279 281 275 254 233 219 214 214 213 211 210 210 213 218 219 217 210 206 206 207 210 215 220 221 229 239 253 267 278 286 294
252 265 280 271 260 266 265 268 269 270 273 274 269 257 262 259 251 239 226 221 218 218 214 208 208 211 213 211 204 203 206 206 208 211 216 224 225 233 242 251 263 276 288 301
247 257 233 246 255 259 283 289 280 272 274 273 261 246 230 255 246 242 230 224 217 213 212 209 209 209 206 201 199 203 206 207 210 213 218 223 226 230 240 251 262 279 295 306
242 253 254 255 269 273 278 279 279 277 269 267 263 241 211 235 237 238 229 221 215 210 208 207 204 199 197 198 199 203 209 210 212 212 214 219 227 235 242 250 263 276 286 296
251 258 271 260 246 264 271 270 272 274 269 264 255 241 200 229 229 226 220 213 211 206 203 199 197 195 192 194 198 200 204 208 212 215 219 225 232 239 244 248 259 271 284 293
251 252 250 264 271 273 276 278 272 276 267 250 233 232 214 221 220 213 211 208 205 200 194 192 194 190 191 192 194 199 203 208 213 220 225 229 236 245 254 263 272 281 291 299
259 268 274 274 280 284 279 275 271 258 243 232 235 218 211 214 215 206 203 199 195 190 186 188 190 193 193 195 199 203 209 217 223 226 230 237 245 254 262 270 279 287 293 296
265 277 269 269 272 274 273 263 250 244 235 226 214 210 204 197 196 191 185 185 186 187 188 190 192 195 196 199 211 221 223 225 230 234 240 248 256 264 273 281 287 292 298 303
242 247 261 263 267 263 257 249 243 241 238 225 210 204 205 198 200 192 189 188 187 188 190 192 195 203 210 215 221 225 229 233 238 245 250 257 264 270 277 284 290 294 296 299
225 237 259 275 268 263 259 247 235 230 227 219 210 209 206 197 196 192 189 191 193 196 199 202 207 208 216 221 227 232 238 243 248 253 258 262 268 274 280 285 289 293 296 299
233 244 260 274 273 270 256 249 247 239 227 216 207 210 205 201 200 198 197 200 204 207 206 212 216 218 224 231 237 243 247 251 254 256 261 267 272 275 279 283 287 292 297 301
241 257 269 274 273 256 235 223 227 227 224 219 219 221 218 213 208 206 205 206 206 209 214 223 229 231 236 243 246 248 252 256 259 262 265 269 273 277 281 285 289 294 298 302
229 240 257 266 266 253 239 232 228 226 228 228 224 220 219 216 211 208 207 213 218 224 229 233 236 238 242 248 253 256 257 260 263 266 269 272 276 280 283 286 292 296 300 303
231 242 260 271 264 255 251 242 236 232 229 226 225 221 218 217 217 216 218 224 226 233 237 241 244 250 252 254 258 262 265 267 269 271 273 277 280 281 284 289 293 297 301 304
245 249 256 262 267 266 264 262 249 240 233 225 221 220 221 219 219 225 231 237 242 247 253 256 259 260 263 265 268 271 272 273 273 274 275 277 280 283 288 292 296 299 300 301
251 252 257 267 273 271 261 258 254 248 242 236 228 224 225 228 232 236 246 250 253 257 261 264 267 269 271 270 271 274 274 275 276 276 278 280 283 286 289 293 296 297 299 302
272 275 274 274 276 273 270 267 264 256 249 246 241 236 236 240 245 249 250 254 259 264 268 270 271 271 273 275 277 279 280 280 280 280 280 281 284 286 290 293 295 298 300 302
275 276 281 283 281 282 282 278 274 274 269 262 259 251 248 248 250 252 255 259 263 266 268 272 275 278 280 281 282 283 282 281 281 281 281 283 284 287 290 292 294 298 301 304